{"data":{"norad_id":55428,"intl_designator":"2023-014AP","name":"STARLINK-5064","alt_names":[],"object_type":"PAYLOAD","status":"ACTIVE","operator":null,"country":"US","launch_date":"2023-01-31","launch_site_code":"AFWTR","launch_vehicle":null,"mission":null,"orbit_class":"UNKNOWN","rcs_meters":null,"size_class":null,"mass_kg":null,"dimensions":null,"purposes":["comms"],"wikipedia_slug":null,"has_3d_model":false,"image_url":null,"decayed_at":null,"tle_current":{"epoch":"2026-05-25T00:53:13.014816Z","epoch_age_seconds":86005,"freshness":"FRESH","line1":"1 55428U 23014AP  26145.03695619  .00000692  00000+0  65831-4 0  9994","line2":"2 55428  69.9994 252.1403 0003508 265.9977  94.0781 14.98328740182994","mean_motion":14.9832874,"eccentricity":0.0003508,"inclination_deg":69.9994,"raan_deg":252.1403,"arg_perigee_deg":265.9977,"mean_anomaly_deg":94.0781,"bstar":6.5831e-5,"rev_number":18299,"period_min":96.10707994562,"perigee_km":569.62165836019,"apogee_km":574.49791642623,"semimajor_km":6950.1967873932,"source":"CELESTRAK","updated_at":"2026-05-25T13:38:17.799382Z"}}}